www.pogodaiklimat.ru

Погода и климат >> Архив погоды >> Бангладеш >> Кхулна


ПОГОДА в Кхулне

  • Прогноз погоды в Кхулне
  • Монитор погоды в Кхулне

АРХИВ ПОГОДЫ в Кхулне

Время (UTC), дата Ветер
(напр.,м/с)
 
Видим.   Явления Облачность Т
(С)
Тd
(С)
f
(%)
Тe
(С)
Тes
(С)
Комфортность P
(гПа)
Po
(гПа)
Тmin
(С)
Tmax
(С)
R
(мм)
R24
(мм)
S
(см)
12 12.08 ЮВ 2 7000 м {дождь} 4/3 540 м
[Sc diur, vesp Ac trans]
+31.0 +26.0 75 +46 +47 опасность
перегрева
996.1 995.9 +33.0 4
15 12.08 ЮВ 1 6000 м 8/6 540 м
[Sc diur, vesp Ac trans]
+29.2 +26.0 83 +44 +44 опасность
перегрева
998.0 997.8
18 12.08 ЮВ 1 5000 м 10/6 540 м
[Sc As op]
+27.4 +25.0 87 +39 +39 очень
душно
999.9 999.7
00 13.08 ЮВ 1 6000 м {дождь} 10/6 540 м
[Sc As op]
+27.2 +27.0 99 +43 +43 опасность
перегрева
997.6 997.4 1
03 13.08 штиль 0 6000 м слаб. дождь 10/8 270 м
[Frnb As op]
+27.7 +27.0 96 +44 +44 опасность
перегрева
999.9 999.7 +26.5
06 13.08 Ю 3 6000 м {дождь} 10/8 300 м
[St As op]
+29.5 +27.0 86 +46 +47 опасность
перегрева
1000.1 999.8 4
09 13.08 Ю 1 6000 м слаб. дождь 10/6 300 м
[Frnb As op]
+27.4 +26.0 92 +41 +42 опасность
перегрева
999.6 999.4
12 13.08 штиль 0 6000 м сильн. дождь 10/6 300 м
[Frnb As op]
+26.0 +26.0 100 +39 +39 очень
душно
1000.4 1000.2 +29.5 47
15 13.08 штиль 0 6000 м {дождь} 6/4 540 м
[Sc Ac As]
+27.0 +27.0 100 +42 +42 опасность
перегрева
1003.0 1002.8
18 13.08 штиль 0 6000 м {дождь} 3/3 540 м
[Sc]
+27.2 +26.0 93 +41 +41 опасность
перегрева
1003.4 1003.2 5
00 14.08 штиль 0 5000 м слаб. дождь 10/6 270 м
[Frnb As op]
+26.8 +26.8 100 +42 +42 опасность
перегрева
1002.4 1002.2 3
03 14.08 штиль 0 5000 м слаб. дождь 10/6 480 м
[Sc As op]
+26.2 +26.0 99 +39 +40 очень
душно
1005.2 1005.0 +25.0
06 14.08 ЮВ 1 5000 м {дождь} 10/6 300 м
[St As op]
+28.8 +28.0 95 +47 +49 опасность
перегрева
1004.8 1004.6 12
09 14.08 штиль 0 5000 м слаб. дождь 10/6 210 м
[Frnb As op]
+26.3 +26.0 98 +39 +40 очень
душно
1003.9 1003.7
12 14.08 штиль 0 6000 м {дождь} 10/6 270 м
[St As op]
+28.5 +28.0 97 +47 +47 опасность
перегрева
1002.2 1002.0 +29.0 20
15 14.08 Ю 1 5000 м 9/5 540 м
[Sc Ac As]
+27.8 +27.0 95 +44 +44 опасность
перегрева
1005.4 1005.2
18 14.08 Ю 1 5000 м 8/4 540 м
[Sc Ac As]
+27.5 +26.0 92 +41 +41 опасность
перегрева
1006.2 1006.0
00 15.08 Ю 1 6000 м 9/4 540 м
[Sc Ac As]
+28.0 +26.0 89 +42 +42 опасность
перегрева
1004.6 1004.4
03 15.08 штиль 0 6000 м в посл. час дождь 10/6 270 м
[St As op]
+27.0 +26.0 94 +40 +42 очень
душно
1006.4 1006.2 +25.5
06 15.08 ЮЗ 1 6000 м {дождь} 10/6 240 м
[St As op]
+27.5 +26.0 92 +41 +43 опасность
перегрева
1006.6 1006.4 20
09 15.08 штиль 0 5000 м слаб. дождь 10/8 300 м
[Frnb As op]
+27.0 +26.0 94 +40 +41 очень
душно
1004.8 1004.6
12 15.08 штиль 0 6000 м {дождь} 10/5 480 м
[Sc As op]
+27.4 +26.0 92 +41 +41 опасность
перегрева
1003.7 1003.5 +29.0 2
15 15.08 штиль 0 6000 м 9/4 540 м
[Sc Ac As]
+27.2 +26.0 93 +41 +41 опасность
перегрева
1004.5 1004.3
18 15.08 Ю 1 6000 м 10/4 540 м
[Sc As op]
+27.6 +27.0 97 +43 +43 опасность
перегрева
1004.8 1004.6
00 16.08 штиль 0 6000 м 10/5 480 м
[Sc As op]
+28.0 +27.0 94 +44 +44 опасность
перегрева
1004.0 1003.8
03 16.08 Ю 1 7000 м 10/6 480 м
[Sc As op]
+29.0 +28.0 94 +48 +49 опасность
перегрева
1005.1 1004.9 +26.5
06 16.08 ЮЗ 1 7000 м 10/5 540 м
[Sc As op]
+32.0 +28.0 79 +52 +55 опасность
перегрева
1004.5 1004.3
09 16.08 Ю 1 7000 м 9/5 540 м
[Sc diur, vesp Ac As]
+32.8 +27.0 72 +51 +54 опасность
перегрева
1002.4 1002.2
12 16.08 Ю 1 6000 м 10/6 540 м
[Sc As op]
+30.2 +27.0 83 +47 +47 опасность
перегрева
1001.4 1001.2 +33.2
15 16.08 штиль 0 6000 м 8/3 540 м
[Sc Ac trans]
+27.5 +25.0 86 +39 +39 очень
душно
1003.5 1003.3
18 16.08 штиль 0 6000 м 10/4 480 м
[Sc As op]
+27.4 +24.0 82 +38 +38 очень
душно
1004.6 1004.4
00 17.08 штиль 0 5000 м сильн. гроза, ливневой дождь 10/9 300 м
[Cb cap As op]
+25.6 +25.6 100 +37 +37 очень
душно
1002.5 1002.3 74
06 17.08 штиль 0 6000 м слаб. дождь {гроза} 10/6 300 м
[Frnb As op]
+26.8 +26.0 95 +40 +42 очень
душно
1003.8 1003.6 41
09 17.08 штиль 0 6000 м 10/4 540 м
[Sc As op]
+29.0 +26.0 84 +44 +46 опасность
перегрева
1001.6 1001.4
12 17.08 штиль 0 6000 м 10/4 540 м
[Sc As op]
+29.8 +26.0 80 +45 +45 опасность
перегрева
1001.3 1001.1 +30.2
15 17.08 штиль 0 6000 м 8/3 540 м
[Sc Ac As]
+29.0 +26.0 84 +44 +44 опасность
перегрева
1003.6 1003.4
18 17.08 штиль 0 6000 м {дождь} 10/6 540 м
[Sc As op]
+27.6 +27.0 97 +43 +43 опасность
перегрева
1003.8 1003.6 0.4
00 18.08 штиль 0 6000 м 9/5 540 м
[Sc Ac As]
+26.4 +25.0 92 +38 +38 очень
душно
1003.5 1003.3
03 18.08 штиль 0 6000 м слаб. дождь 10/8 240 м
[Frnb As op]
+27.7 +26.0 90 +41 +42 опасность
перегрева
1004.9 1004.6 +25.2
06 18.08 Ю 2 7000 м {дождь} 9/5 500 м
[Sc Ac As]
+30.0 +26.0 79 +45 +50 опасность
перегрева
1005.1 1004.9 4
09 18.08 штиль 0 6000 м в посл. час дождь 10/4 540 м
[Sc As op]
+30.2 +27.0 83 +47 +49 опасность
перегрева
1003.4 1003.2
12 18.08 Ю 1 7000 м {дождь} 10/5 540 м
[St As op]
+30.4 +25.0 73 +44 +44 опасность
перегрева
1002.6 1002.4 +31.5 1
15 18.08 Ю 2 5000 м 3/3 540 м
[Sc]
+28.5 +26.0 86 +43 +43 опасность
перегрева
1004.6 1004.4
18 18.08 Ю 2 5000 м 4/4 540 м
[Sc]
+28.0 +26.0 89 +42 +42 опасность
перегрева
1005.8 1005.6
00 19.08 штиль 0 6000 м 6/3 540 м
[Sc Ac trans]
+26.5 +26.0 97 +40 +40 очень
душно
1005.1 1004.9
03 19.08 штиль 0 7000 м 8/8 540 м
[Sc diur, vesp]
+30.5 +27.0 82 +48 +51 опасность
перегрева
1006.4 1006.1 +26.5
06 19.08 штиль 0 7000 м 6/6 540 м
[Sc diur, vesp]
+33.3 +26.0 66 +49 +61 опасность
перегрева
1005.6 1005.3

 

Местоположение метеостанции Кхулна (Бангладеш): широта 22.78 долгота 89.53 высота над уровнем моря 4 м.

В архиве по умолчанию представлена погода в Кхулне за последнюю неделю. Архивные данные за месяц целиком и за предыдущие месяцы, начиная с января 2011 года, Вы можете получить, выбрав интересующий диапазон дат из раскрывающегося списка и нажав кнопку "Ввод!".


*Определитесь, кто Вы:
робот инопланетянин человек

Внимание! Время в таблицах - всемирное. Для получения местного времени необходимо прибавить поправку, которая равна 6.5 ч.

Смотрите также архив погоды в соседних городах и на ближайших метеорологических станциях:

Погода в Монгле (Бангладеш) (20 км)
Погода в Гопалгандж-Садаре (Бангладеш) (39 км)
Погода в Саткхире (Бангладеш) (47 км)
Погода в Джессоре (Бангладеш) (58 км)
Погода в Бейсирхэте (Западная Бенгалия, Индия) (69 км)
Погода в Мадарипуре (Бангладеш) (79 км)
Погода в Барисале (Бангладеш) (86 км)
Погода в Кумархали (Бангладеш) (91 км)
Погода в Патуакхали (Бангладеш) (96 км)
Погода в Фаридпуре (Бангладеш) (97 км)

Пояснения к столбцам:

Ветер - указаны скорость ветра в м/с - средняя за 10 мин, порывы в срок и между сроками (в фигурных скобках) и направление, откуда дует ветер: С - северный, СВ - северо-восточный, В - восточный, ЮВ - юго-восточный, Ю - южный, ЮЗ - юго-западный, З - западный, СЗ - северо-западный.
Видимость - горизонтальная дальность видимости в метрах или километрах. При видимости от 1 до 10 км при отсутствии осадков обычно наблюдается дымка, при ухудшении видимости до 1 км и менее - туман. В сухую погоду видимость может ухудшаться дымом, пылью или мглою.
Явления - указаны атмосферные явления, наблюдавшиеся в срок или в последний час перед сроком; фигурными скобками обозначены явления, наблюдавшиеся между сроками (за 1-3 часа до срока); квадратными скобками обозначены град или гололедные отложения с указанием их диаметра в мм.
Облачность - указаны через наклонную черту общая и нижняя облачность в баллах и высота нижней границы облаков в метрах; квадратными скобками обозначены формы облаков: Ci - перистые, Cs - перисто-слоистые, Cc - перисто-кучевые, Ac - высококучевые, As - высокослоистые, Sc - слоисто-кучевые, Ns - слоисто-дождевые, Cu - кучевые, Cb - кучево-дождевые. Подробнее классификацию облаков см. в Атласе облаков (PDF).
T - Температура воздуха - температура, измеренная на высоте 2 м над землей.
Td - Температура точки росы - температура, при понижении до которой содержащийся в воздухе водяной пар достигнет насыщения.
f - Относительная влажность воздуха - влажноcть воздуха, измеренная на высоте 2 м над землей.
Te - Эффективная температура - температура, которую ощущает одетый по сезону человек в тени. Характеристика душности погоды. При расчете учитывается влияние влажности воздуха и скорости ветра на теплоощущения человека.
Tes - Эффективная температура на солнце - температура, которую ощущает человек, с поправкой на солнечный нагрев. Характеристика знойности погоды. Зависит от высоты солнца над горизонтом, облачности и скорости ветра. Ночью, в пасмурную погоду, а также при ветре 12 м/с и более поправка равна нулю.
P - Атмосферное давление - приведенное к уровню моря атмосферное давление.
Po - Атмосферное давление - измеренное на уровне метеостанции атмосферное давление.
Tmin - Минимальная температура - минимум температуры воздуха на высоте 2 м над землей.
Tmax - Максимальная температура - максимум температуры воздуха на высоте 2 м над землей.
R - Количество осадков - Количество выпавших осадков за период времени, мм. При наведении курсора мыши на число - период времени, за который выпало указанное количество осадков.
R24 - Количество осадков - Количество выпавших осадков за 24 часа, мм.
S - Снежный покров - Высота снежного покрова, см. При наведении курсора мыши на число - состояние снежного покрова и степень покрытия местности в баллах.